sat.trackr.live / text

‹ back to catalog

STARLINK-31444

NORAD 59236 · 2024-049F

PAYLOAD ACTIVE UNKNOWN

§ Identity

Operator
Country
US
Launch date
2024-03-16
Launch site
AFETR
Launch vehicle
Mass (kg)
RCS (m²)

Purposes: comms

External: N2YO · Heavens-Above · Gunter

§ Orbital elements

Epoch: 2026-05-25T04:00:03.998880Z

Period
93.94 min
Inclination
43.0005°
Eccentricity
0.0002013
Mean motion
15.32854418 rev/d
Perigee alt
465.9 km
Apogee alt
468.7 km
Semi-major
6,845.4 km
B*
1.1412e-3
RAAN
359.1927°
Arg perigee
274.4384°
Mean anomaly
137.1885°
Rev number
591

§ Raw data

STARLINK-314441 59236U 24049F   26145.16671295  .00036890  00000+0  11412-2 0  99952 59236  43.0005 359.1927 0002013 274.4384 137.1885 15.32854418  5912

JSON: /api/v1/satellites/59236 · /tle

For live sub-satellite position, see the globe view (requires WebGL).

§ Visibility from observer

Set your observer location to see the next 7 days of passes ≥ 10°. The values pass through the URL so the page stays shareable.

No JS? Fill the form by hand. The geolocation button needs JavaScript.